[[{"header":{"parameterUnit":"m.s-1","parameterCategory":1,"la1":30.2991,"la2":30.254,"lo1":-89.0895,"lo2":-89.0444,"dy":0.0017,"dx":0.0017,"nx":28,"ny":28,"refTime":"2024-08-15T21:00:00:Z","depth":0,"parameterNumber":2,"parameterNumberName":"U-component_of_WINDS"},"data":[0,0,0,0,0,0,0,0,0,0,0,0,0,0,0,0,0,0,0,0,0,0,0,0,0,0,0,0,0,0,0,0,0,0,0,0,0,0,0,0,0,0,0,0,0,0,0,0,0,0,0,0,0,0,0,0,0,0,1.5269,1.5269,0,1.5319,1.532,1.532,1.5314,1.5313,1.5312,1.5311,1.5363,1.5365,1.5367,0,0,0,0,0,0,0,0,0,0,0,0,0,1.5165,1.5167,1.5268,1.5269,1.527,1.5319,1.532,1.532,1.5314,1.5313,1.5312,1.5311,1.5362,1.5364,1.5367,0,0,0,0,0,0,0,0,0,0,0,0,0,1.5212,1.5168,1.5268,1.5273,1.5273,1.5319,1.532,1.5321,1.5314,1.5313,1.5312,1.5311,1.5361,1.5364,1.5367,1.5412,0,0,1.5377,1.5378,0,0,0,0,0,0,0,0,1.521,1.5216,1.5271,1.5272,1.5273,1.5309,1.5302,1.5351,1.5314,1.5299,1.5311,1.531,1.5346,1.535,1.5362,1.5414,1.5416,1.5377,1.5379,1.5381,1.5382,0,0,0,0,0,0,0,1.5206,1.5214,1.5288,1.5272,1.5273,1.5271,1.5277,1.5311,1.5328,1.53,1.53,1.5306,1.5346,1.5359,1.5363,1.5417,1.5377,1.538,1.5382,1.5383,1.5506,1.5507,0,0,0,0,0,0,1.5202,1.5211,1.5287,1.529,1.5238,1.5274,1.528,1.5299,1.5328,1.5331,1.5307,1.5305,1.5354,1.536,1.5365,1.5418,1.5381,1.5384,1.5385,1.5505,1.5506,1.5508,0,0,0,0,0,0,1.52,1.5209,1.5285,1.5251,1.526,1.5277,1.5298,1.53,1.5313,1.5333,1.5336,1.5317,1.5354,1.5361,1.54,1.542,1.5385,1.5388,1.5503,1.5505,1.5507,1.5524,0,0,0,0,0,0,1.5197,1.5208,1.5226,1.5251,1.5262,1.5319,1.5299,1.5302,1.5319,1.5318,1.5344,1.5347,1.5353,1.5395,1.5403,1.5423,1.539,1.5501,1.5504,1.5506,1.5522,1.5527,1.5531,0,0,0,0,0,1.5193,1.5229,1.5227,1.5236,1.5284,1.532,1.5326,1.5333,1.5321,1.5338,1.535,1.5346,1.5416,1.5399,1.5408,1.543,1.55,1.5503,1.5506,1.552,1.5526,1.553,0,0,0,0,0,0,1.5205,1.5232,1.523,1.5275,1.5295,1.5319,1.5341,1.5339,1.5364,1.5361,1.5368,1.5374,1.5414,1.5426,1.5406,1.5473,1.5456,1.5461,1.5464,1.5469,1.5474,1.5469,1.5393,0,0,0,0,0,1.5213,1.5241,1.5262,1.53,1.531,1.5324,1.534,1.5343,1.5365,1.5373,1.5389,1.541,1.5436,1.5454,1.5479,1.5524,1.5529,1.5543,1.5547,1.5551,1.5555,1.5578,1.5584,1.5518,1.5518,1.5518,0,0,1.5229,1.5248,1.5264,1.5302,1.5319,1.5346,1.5331,1.5362,1.5382,1.5378,1.5416,1.5428,1.5451,1.5493,1.5512,1.5504,1.5574,1.5555,1.5557,1.5559,1.5581,1.5588,1.5593,1.552,1.5519,1.5519,0,0,1.5273,1.529,1.5322,1.5339,1.5364,1.5373,1.538,1.5404,1.5412,1.545,1.5447,1.5471,1.5518,1.5534,1.5549,1.5598,1.5594,1.5606,1.5628,1.565,1.5655,1.566,1.5676,1.5682,1.561,1.561,1.561,0,1.529,1.5332,1.5339,1.5369,1.5386,1.5383,1.5415,1.5431,1.5463,1.5474,1.5465,1.5522,1.5538,1.5582,1.5594,1.5607,1.5615,1.5602,1.5654,1.5659,1.5663,1.5679,1.5685,1.5611,1.5611,1.5611,1.5611,0,1.5351,1.538,1.5403,1.5434,1.5453,1.5484,1.5495,1.5513,1.5515,1.5524,1.5562,1.5581,1.561,1.5621,1.5623,1.5666,1.566,1.5653,1.5636,1.5671,1.5685,1.5691,1.5613,1.5612,1.5612,1.5612,0,0,1.5404,1.5437,1.5445,1.5459,1.5486,1.5508,1.5539,1.5567,1.5582,1.5604,1.5629,1.5668,1.566,1.5677,1.5681,1.57,1.5736,1.569,1.5691,1.5697,1.5783,1.5788,1.5794,1.5734,1.5735,1.5736,1.578,0,1.5449,1.5503,1.551,1.5558,1.5584,1.5582,1.5608,1.5627,1.5637,1.566,1.5671,1.5698,1.5687,1.5696,1.5716,1.5728,1.5753,1.5725,1.5757,1.5758,1.575,1.5802,1.5808,1.5848,1.5786,1.5787,1.5788,0,1.5509,1.5532,1.5583,1.5605,1.5616,1.564,1.5666,1.5688,1.571,1.5715,1.5733,1.5734,1.5765,1.5747,1.5789,1.5769,1.5783,1.579,1.5792,1.5794,1.5774,1.5805,1.5862,1.5867,1.5797,1.5797,1.5796,0,1.554,1.5585,1.562,1.5632,1.5659,1.5676,1.5688,1.5708,1.5724,1.5746,1.5757,1.5783,1.5796,1.5816,1.5824,1.581,1.5865,1.5848,1.5869,1.5869,1.588,1.5879,1.5938,1.589,1.589,1.589,1.589,0,1.559,1.562,1.5634,1.5656,1.569,1.5697,1.5731,1.5742,1.576,1.5783,1.5783,1.5805,1.5814,1.5837,1.5843,1.5876,1.5883,1.5887,1.5889,1.5887,1.5886,1.5895,1.5892,1.5892,1.5892,1.5891,1.5891,0,1.563,1.5641,1.5679,1.5702,1.5708,1.5732,1.5751,1.5772,1.5781,1.5811,1.5818,1.5832,1.5859,1.5869,1.5902,1.5906,1.5944,1.5943,1.5937,1.5937,1.5957,1.5954,1.6023,1.6032,1.5979,1.598,1.598,0,1.566,1.5684,1.5709,1.5724,1.5737,1.5762,1.5779,1.5787,1.5804,1.5829,1.5846,1.5873,1.5895,1.5938,1.5951,1.5976,1.5975,1.5998,1.5979,1.5976,1.5974,1.5972,1.5974,1.6001,1.6001,1.6002,1.6002,0,1.5712,1.5716,1.574,1.5765,1.5785,1.5805,1.5825,1.5838,1.5849,1.5867,1.5895,1.5912,1.5945,1.5972,1.5997,1.6009,1.6007,1.6008,1.6014,1.6012,1.6007,1.6009,1.5945,1.6006,1.6006,1.6006,1.6005,1.6005,1.5747,1.5767,1.5788,1.5814,1.583,1.5848,1.5868,1.588,1.5903,1.5931,1.5934,1.5964,1.5983,1.6017,1.603,1.6053,1.6047,1.6056,1.6058,1.6059,1.606,1.6004,1.6058,1.6058,1.6057,1.6057,1.6057,0,1.5798,1.5811,1.5835,1.5862,1.5883,1.588,1.5901,1.5918,1.5944,1.5963,1.5984,1.6015,1.6041,1.6056,1.6081,1.6096,1.6096,1.6102,1.6101,1.6103,1.6065,1.6057,1.6102,1.6102,1.6102,1.6102,1.6102,1.6102,1.5826,1.586,1.5866,1.5908,1.592,1.5949,1.5962,1.5978,1.5993,1.6028,1.6049,1.6059,1.6075,1.6102,1.6124,1.6128,1.6137,1.6144,1.6147,1.6111,1.6106,1.6102,1.6094,1.6146,1.6146,1.6183,1.6183,1.6183]},{"header":{"parameterUnit":"m.s-1","parameterCategory":1,"la1":30.2991,"la2":30.254,"lo1":-89.0895,"lo2":-89.0444,"dy":0.0017,"dx":0.0017,"nx":28,"ny":28,"refTime":"2024-08-15T21:00:00:Z","depth":0,"parameterNumber":3,"parameterNumberName":"V-component_of_WINDS"},"data":[0,0,0,0,0,0,0,0,0,0,0,0,0,0,0,0,0,0,0,0,0,0,0,0,0,0,0,0,0,0,0,0,0,0,0,0,0,0,0,0,0,0,0,0,0,0,0,0,0,0,0,0,0,0,0,0,0,0,3.11,3.11,0,3.1058,3.1058,3.1057,3.1016,3.1015,3.1015,3.1014,3.0969,3.0968,3.0968,0,0,0,0,0,0,0,0,0,0,0,0,0,3.1142,3.1142,3.1101,3.11,3.1099,3.1059,3.1058,3.1057,3.1016,3.1015,3.1015,3.1014,3.0969,3.0968,3.0968,0,0,0,0,0,0,0,0,0,0,0,0,0,3.1115,3.1142,3.1101,3.1074,3.1071,3.1059,3.1058,3.1057,3.1016,3.1015,3.1014,3.1014,3.097,3.0969,3.0967,3.0977,0,0,3.0964,3.0964,0,0,0,0,0,0,0,0,3.1116,3.1113,3.1078,3.1076,3.1073,3.1042,3.1056,3.103,3.1016,3.1037,3.1014,3.1013,3.0994,3.0991,3.0984,3.0975,3.0973,3.0964,3.0964,3.0963,3.0963,0,0,0,0,0,0,0,3.1118,3.1115,3.1084,3.1078,3.1074,3.1063,3.1058,3.1051,3.102,3.1035,3.1032,3.1028,3.0992,3.0986,3.0983,3.0973,3.0964,3.0963,3.0963,3.0962,3.0968,3.0969,0,0,0,0,0,0,3.1125,3.1117,3.1085,3.1083,3.1093,3.1063,3.1058,3.1052,3.102,3.1015,3.1028,3.1026,3.0988,3.0984,3.0981,3.099,3.0963,3.0962,3.0962,3.0967,3.0968,3.0969,0,0,0,0,0,0,3.1126,3.1122,3.1087,3.1099,3.1093,3.1063,3.1058,3.1052,3.1046,3.1015,3.1009,3.1028,3.0987,3.0983,3.0979,3.0988,3.0962,3.0961,3.0966,3.0968,3.0969,3.1008,0,0,0,0,0,0,3.1127,3.1123,3.1127,3.1099,3.1093,3.1086,3.1058,3.1052,3.1044,3.104,3.1013,3.1008,3.0986,3.098,3.0978,3.0986,3.096,3.0965,3.0967,3.0968,3.1006,3.1011,3.1015,0,0,0,0,0,3.1129,3.1139,3.1127,3.1124,3.1098,3.1086,3.1083,3.1058,3.1045,3.1048,3.1029,3.1009,3.0987,3.098,3.0977,3.0985,3.0965,3.0967,3.0968,3.1004,3.101,3.1015,0,0,0,0,0,0,3.1169,3.1135,3.1122,3.1124,3.1108,3.1079,3.1083,3.1065,3.1052,3.1049,3.1019,3.1013,3.1012,3.0998,3.0991,3.0992,3.0973,3.0974,3.1002,3.1007,3.1011,3.1014,3.0959,0,0,0,0,0,3.1178,3.1172,3.1143,3.1148,3.1141,3.1113,3.1108,3.109,3.1072,3.1065,3.1046,3.1029,3.1018,3.1011,3.1,3.1004,3.0997,3.1008,3.1012,3.1016,3.1017,3.1017,3.1021,3.0975,3.0975,3.0975,0,0,3.1196,3.1178,3.1176,3.1155,3.1141,3.1135,3.1108,3.1103,3.1098,3.1064,3.1059,3.1044,3.1023,3.1022,3.1021,3.1011,3.1028,3.1018,3.1021,3.102,3.1019,3.1023,3.1027,3.0976,3.0976,3.0976,0,0,3.1227,3.1213,3.1215,3.1201,3.1181,3.1162,3.1163,3.1136,3.1125,3.112,3.1094,3.1087,3.107,3.1055,3.1046,3.1071,3.1051,3.1068,3.109,3.1091,3.1094,3.1097,3.1105,3.1109,3.1069,3.1069,3.1069,0,3.1253,3.1244,3.1218,3.1215,3.1206,3.1176,3.1177,3.1165,3.1141,3.1135,3.1124,3.1101,3.1085,3.108,3.1087,3.108,3.1079,3.1071,3.1096,3.1099,3.1101,3.1109,3.1112,3.1072,3.1071,3.1071,3.1071,0,3.1276,3.127,3.1274,3.1252,3.1244,3.1243,3.1217,3.1211,3.1194,3.1177,3.1171,3.115,3.1134,3.1131,3.1114,3.1124,3.1118,3.1102,3.1082,3.1108,3.1114,3.1117,3.1075,3.1074,3.1073,3.1073,0,0,3.1331,3.1295,3.1297,3.1286,3.1261,3.1255,3.1253,3.1237,3.1233,3.1217,3.1213,3.1199,3.1184,3.1173,3.1154,3.1155,3.1175,3.1138,3.1137,3.1145,3.1183,3.1195,3.1198,3.1162,3.1162,3.1162,3.1184,0,3.1357,3.1351,3.1327,3.1328,3.1322,3.1292,3.129,3.1273,3.1257,3.1248,3.1229,3.1219,3.1201,3.1194,3.1193,3.1172,3.1182,3.1171,3.1157,3.1156,3.1163,3.1202,3.1215,3.1236,3.1187,3.1187,3.1187,0,3.1387,3.1374,3.1374,3.1348,3.1344,3.1343,3.1326,3.1319,3.1299,3.1287,3.1275,3.1254,3.1248,3.123,3.122,3.1214,3.1206,3.1195,3.1196,3.1193,3.1173,3.12,3.1243,3.1246,3.1191,3.1191,3.119,0,3.1426,3.1408,3.1406,3.1398,3.1368,3.1367,3.1355,3.1334,3.1326,3.1311,3.1306,3.129,3.1282,3.127,3.1245,3.1234,3.1238,3.1218,3.1227,3.1228,3.1229,3.1229,3.1271,3.1225,3.1225,3.1225,3.1225,0,3.1457,3.1458,3.1423,3.1422,3.1421,3.1394,3.1395,3.1379,3.1361,3.1355,3.1329,3.1324,3.1291,3.1282,3.1262,3.1257,3.1253,3.1243,3.1237,3.1245,3.1246,3.1239,3.1237,3.1226,3.1226,3.1226,3.1225,0,3.1501,3.1477,3.1473,3.1445,3.1438,3.1439,3.1415,3.1412,3.1393,3.1386,3.1383,3.1354,3.1342,3.1316,3.1296,3.1283,3.1282,3.1273,3.1289,3.1286,3.1296,3.1295,3.1334,3.1337,3.1291,3.1291,3.1292,0,3.1522,3.1522,3.1494,3.1489,3.1478,3.1469,3.1461,3.1434,3.1426,3.1404,3.1403,3.1389,3.1376,3.1358,3.1334,3.1319,3.1308,3.1323,3.1306,3.1313,3.1308,3.1308,3.1307,3.1327,3.1328,3.1328,3.1329,0,3.1562,3.155,3.154,3.1526,3.1517,3.1504,3.1489,3.1486,3.1455,3.1448,3.1435,3.1426,3.1406,3.1392,3.1373,3.1358,3.1338,3.1334,3.1335,3.1343,3.1352,3.1346,3.1299,3.1333,3.1333,3.1333,3.1332,3.1332,3.1594,3.1593,3.1573,3.1562,3.1549,3.1536,3.1532,3.1513,3.1503,3.1485,3.1469,3.1458,3.1437,3.141,3.1397,3.1387,3.1377,3.1379,3.1379,3.138,3.1382,3.1354,3.1383,3.1383,3.1383,3.1383,3.1382,0,3.1632,3.1618,3.1609,3.159,3.1581,3.1564,3.1547,3.154,3.1531,3.1514,3.1502,3.1487,3.1473,3.1449,3.1432,3.1429,3.1419,3.1425,3.1425,3.1422,3.1393,3.1393,3.1434,3.1434,3.1434,3.1434,3.1434,3.1434,3.1651,3.1648,3.1634,3.1623,3.1608,3.1598,3.159,3.1577,3.1563,3.1548,3.1537,3.1522,3.1501,3.1483,3.1469,3.1462,3.1456,3.1466,3.1456,3.1429,3.1424,3.1419,3.142,3.1465,3.1465,3.1486,3.1486,3.1486]}]]